{"data":{"norad_id":38733,"intl_designator":"2012-041A","name":"COSMOS 2481","alt_names":[],"object_type":"PAYLOAD","status":"ACTIVE","operator":null,"country":"CIS","launch_date":"2012-07-28","launch_site_code":"PLMSC","launch_vehicle":null,"mission":null,"orbit_class":"UNKNOWN","rcs_meters":0.901,"size_class":null,"mass_kg":null,"dimensions":null,"purposes":[],"wikipedia_slug":null,"has_3d_model":false,"image_url":null,"decayed_at":null,"tle_current":{"epoch":"2026-09-20T05:41:31.875072Z","epoch_age_seconds":52672,"freshness":"FRESH","line1":"1 38733U 12041A   26263.23717448  .00000139  00000+0  93851-3 0  9998","line2":"2 38733  82.4794  15.9515 0018241 226.6446 133.3114 12.42437330641558","mean_motion":12.4243733,"eccentricity":0.0018241,"inclination_deg":82.4794,"raan_deg":15.9515,"arg_perigee_deg":226.6446,"mean_anomaly_deg":133.3114,"bstar":0.00093851,"rev_number":64155,"period_min":115.90121813227,"perigee_km":1481.9241887368,"apogee_km":1510.6516657564,"semimajor_km":7874.4249272466,"source":"CELESTRAK","updated_at":"2026-09-20T09:00:13.861857Z"}}}